Location: Peterborough
(44.3091°N, 78.3197°W)
Time: 17:17:32
(UTC-04:00)

Transit 2A - Pass Details

Date: 22 March 2023
Orbit: 591 x 964 km, 66.7° (Epoch: 04 June)

Event Time Altitude Azimuth Distance (km) Brightness Sun altitude
Rises 12:45:35 0° 330° (NNW) 3,571 9.0 45.7°
Reaches altitude 10° 12:50:02 10° 360° (N) 2,678 8.5 45.9°
Maximum altitude 12:52:27 12° 23° (NNE) 2,536 8.5 46.0°
Drops below altitude 10° 12:54:53 10° 45° (NE) 2,705 8.7 46.1°
Sets 12:59:26 0° 75° (ENE) 3,648 9.4 46.2°
